OE3APM-13 Weather Reports


Display with metric or nautical units.
time (UTC)temp
F
wind
direction
speed
MPH
gust
MPH
rain 1hr
in
rain 24hr
in
rain mn
in
humidity
%
barometer
mb
20260509221107 50 76 3.0 9.0 0.00 0.00 0.00 71 1018.2
20260509220606 50 92 3.0 9.0 0.00 0.00 0.00 71 1018.4
20260509220108 50 65 3.0 7.0 0.00 0.00 0.00 70 1018.5
20260509215602 51 126 4.0 11.0 0.00 0.00 0.00 70 1018.4
20260509215105 51 107 4.0 14.0 0.00 0.00 0.00 70 1018.4
20260509214603 51 103 4.0 14.0 0.00 0.00 0.00 69 1018.4
20260509214057 51 123 4.0 10.0 0.00 0.00 0.00 69 1018.4
20260509213545 51 104 4.0 11.0 0.00 0.00 0.00 70 1018.4
20260509213038 51 67 5.0 11.0 0.00 0.00 0.00 69 1018.2
20260509212531 52 103 4.0 9.0 0.00 0.00 0.00 69 1018.4
20260509212033 52 92 4.0 9.0 0.00 0.00 0.00 68 1018.4
20260509211540 52 104 4.0 9.0 0.00 0.00 0.00 68 1018.2
20260509211030 53 107 4.0 10.0 0.00 0.00 0.00 67 1018.2
20260509210530 53 110 4.0 10.0 0.00 0.00 0.00 67 1018.2
20260509210030 53 92 5.0 14.0 0.00 0.00 0.00 67 1018.1
20260509205531 53 69 4.0 14.0 0.00 0.00 0.00 67 1018.2
20260509205030 53 90 3.0 8.0 0.00 0.00 0.00 67 1018.2
20260509204533 54 128 4.0 9.0 0.00 0.00 0.00 66 1018.4
20260509204029 54 77 4.0 9.0 0.00 0.00 0.00 66 1018.2
20260509203530 54 50 4.0 11.0 0.00 0.00 0.00 66 1018.2
20260509203030 55 49 3.0 11.0 0.00 0.00 0.00 66 1018.2
20260509202531 55 90 3.0 10.0 0.00 0.00 0.00 65 1018.2
20260509202032 55 76 4.0 10.0 0.00 0.00 0.00 65 1018.1
20260509201530 55 45 3.0 8.0 0.00 0.00 0.00 65 1018.1
20260509201030 56 70 2.0 7.0 0.00 0.00 0.00 64 1018.1
20260509200531 56 96 2.0 7.0 0.00 0.00 0.00 64 1018.1
20260509200032 56 62 4.0 10.0 0.00 0.00 0.00 64 1018.0
20260509195531 56 44 4.0 10.0 0.00 0.00 0.00 63 1018.0
20260509195031 56 65 3.0 10.0 0.00 0.00 0.00 63 1018.0
20260509194533 57 48 3.0 7.0 0.00 0.00 0.00 64 1018.0
20260509194031 57 59 3.0 7.0 0.00 0.00 0.00 63 1018.0
20260509193530 57 44 3.0 7.0 0.00 0.00 0.00 62 1018.0
20260509193031 57 69 3.0 7.0 0.00 0.00 0.00 62 1017.9
20260509192530 57 76 3.0 8.0 0.00 0.00 0.00 62 1017.9
20260509192033 57 90 3.0 8.0 0.00 0.00 0.00 62 1017.9
20260509191532 58 68 3.0 8.0 0.00 0.00 0.00 62 1017.8
20260509191031 58 88 3.0 7.0 0.00 0.00 0.00 61 1017.8
20260509190530 58 33 3.0 8.0 0.00 0.00 0.00 61 1017.8
20260509190030 58 27 3.0 8.0 0.00 0.00 0.00 61 1017.7
20260509185530 58 60 4.0 10.0 0.00 0.00 0.00 61 1017.7
20260509185031 58 36 4.0 10.0 0.00 0.00 0.00 61 1017.7
20260509184531 58 26 3.0 5.0 0.00 0.00 0.00 60 1017.6
20260509184031 58 24 2.0 5.0 0.00 0.00 0.00 60 1017.6
20260509183530 59 46 2.0 7.0 0.00 0.00 0.00 60 1017.5
20260509183029 59 65 2.0 7.0 0.00 0.00 0.00 60 1017.4
20260509182534 59 80 2.0 5.0 0.00 0.00 0.00 60 1017.5
20260509182028 59 34 3.0 5.0 0.00 0.00 0.00 59 1017.4
20260509181509 60 66 3.0 7.0 0.00 0.00 0.00 58 1017.4
20260509181008 60 40 1.0 7.0 0.00 0.00 0.00 57 1017.3
20260509180510 60 37 1.0 4.0 0.00 0.00 0.00 58 1017.3
20260509180006 60 74 2.0 6.0 0.00 0.00 0.00 57 1017.2
20260509175506 60 102 2.0 6.0 0.00 0.00 0.00 57 1017.2
20260509175002 61 74 3.0 9.0 0.00 0.00 0.00 56 1017.2
20260509174502 61 83 4.0 10.0 0.00 0.00 0.00 55 1017.1
20260509174002 61 103 4.0 10.0 0.00 0.00 0.00 55 1017.1
20260509173501 62 80 4.0 11.0 0.00 0.00 0.00 55 1017.1
20260509173003 62 71 4.0 11.0 0.00 0.00 0.00 54 1017.1
20260509172504 62 53 3.0 10.0 0.00 0.00 0.00 55 1017.1
20260509172002 62 80 4.0 10.0 0.00 0.00 0.00 53 1017.0
20260509171504 63 63 3.0 10.0 0.00 0.00 0.00 53 1017.0
20260509171002 63 92 3.0 9.0 0.00 0.00 0.00 53 1017.0
20260509170501 63 55 3.0 9.0 0.00 0.00 0.00 52 1016.9
20260509170001 63 76 4.0 9.0 0.00 0.00 0.00 52 1017.0
20260509165500 63 65 5.0 10.0 0.00 0.00 0.00 52 1016.9
20260509165000 64 53 5.0 10.0 0.00 0.00 0.00 51 1016.9
20260509164502 64 11 5.0 9.0 0.00 0.00 0.00 50 1016.9
20260509164000 65 23 3.0 8.0 0.00 0.00 0.00 50 1016.9
20260509163502 65 80 2.0 5.0 0.00 0.00 0.00 49 1016.9
20260509163000 65 92 2.0 5.0 0.00 0.00 0.00 49 1016.9
20260509162501 65 80 3.0 7.0 0.00 0.00 0.00 48 1016.9
20260509161957 65 40 3.0 7.0 0.00 0.00 0.00 48 1016.9
20260509161503 66 92 3.0 5.0 0.00 0.00 0.00 48 1016.9
20260509160959 66 39 2.0 5.0 0.00 0.00 0.00 48 1017.0
20260509160458 66 109 2.0 6.0 0.00 0.00 0.00 48 1017.0
20260509155958 66 309 2.0 6.0 0.00 0.00 0.00 48 1017.0
20260509155458 66 102 3.0 9.0 0.00 0.00 0.00 49 1017.1
20260509155000 66 86 3.0 9.0 0.00 0.00 0.00 48 1017.1
20260509154456 66 42 3.0 8.0 0.00 0.00 0.00 48 1017.1
20260509153957 67 42 3.0 8.0 0.00 0.00 0.00 47 1017.2
20260509153456 67 46 4.0 10.0 0.00 0.00 0.00 47 1017.2
20260509152956 67 33 2.0 10.0 0.00 0.00 0.00 46 1017.2
20260509152456 68 130 0.0 3.0 0.00 0.00 0.00 45 1017.1
20260509151955 68 99 0.0 2.0 0.00 0.00 0.00 44 1017.1
20260509151455 67 51 1.0 3.0 0.00 0.00 0.00 42 1017.1
20260509150954 67 28 2.0 4.0 0.00 0.00 0.00 42 1017.1
20260509150456 67 24 2.0 4.0 0.00 0.00 0.00 44 1017.2
20260509145947 67 259 2.0 6.0 0.00 0.00 0.00 45 1017.2
20260509145444 66 13 3.0 6.0 0.00 0.00 0.00 44 1017.2
20260509144944 66 341 4.0 7.0 0.00 0.00 0.00 45 1017.2
20260509144444 65 0 4.0 7.0 0.00 0.00 0.00 44 1017.2
20260509143944 66 355 4.0 8.0 0.00 0.00 0.00 44 1017.2
20260509143443 67 12 5.0 8.0 0.00 0.00 0.00 43 1017.3
20260509142946 67 32 5.0 8.0 0.00 0.00 0.00 43 1017.3
20260509142444 67 47 5.0 11.0 0.00 0.00 0.00 43 1017.3
20260509141945 68 0 5.0 11.0 0.00 0.00 0.00 42 1017.3
20260509141444 68 5 5.0 10.0 0.00 0.00 0.00 42 1017.2
20260509140945 68 40 4.0 10.0 0.00 0.00 0.00 42 1017.2
20260509140445 68 5 3.0 8.0 0.00 0.00 0.00 42 1017.3
20260509135945 68 21 2.0 6.0 0.00 0.00 0.00 42 1017.3
20260509135444 67 42 3.0 5.0 0.00 0.00 0.00 42 1017.3
20260509134946 67 36 6.0 12.0 0.00 0.00 0.00 42 1017.3
20260509134445 67 329 7.0 12.0 0.00 0.00 0.00 41 1017.3
20260509133947 68 39 4.0 11.0 0.00 0.00 0.00 41 1017.3
20260509133445 68 355 4.0 11.0 0.00 0.00 0.00 44 1017.3
20260509132946 67 38 6.0 11.0 0.00 0.00 0.00 42 1017.3
20260509132443 67 43 4.0 11.0 0.00 0.00 0.00 42 1017.3
20260509131946 67 246 3.0 7.0 0.00 0.00 0.00 43 1017.3
20260509131444 67 326 6.0 11.0 0.00 0.00 0.00 43 1017.4
20260509130946 67 5 7.0 11.0 0.00 0.00 0.00 43 1017.4
20260509130444 68 37 6.0 11.0 0.00 0.00 0.00 43 1017.4
20260509125946 67 273 5.0 9.0 0.00 0.00 0.00 45 1017.4
20260509125443 67 18 4.0 9.0 0.00 0.00 0.00 48 1017.5
20260509124944 66 23 4.0 8.0 0.00 0.00 0.00 45 1017.6
20260509124442 66 42 4.0 9.0 0.00 0.00 0.00 45 1017.7
20260509123941 66 23 4.0 11.0 0.00 0.00 0.00 46 1017.7
20260509123441 66 19 5.0 11.0 0.00 0.00 0.00 45 1017.7
20260509122938 67 101 6.0 14.0 0.00 0.00 0.00 47 1017.8
20260509122438 67 314 5.0 14.0 0.00 0.00 0.00 44 1017.8
20260509121935 67 304 3.0 8.0 0.00 0.00 0.00 44 1017.9
20260509121436 66 275 2.0 6.0 0.00 0.00 0.00 46 1018.0
20260509120936 66 325 2.0 6.0 0.00 0.00 0.00 43 1018.1
20260509120438 66 273 2.0 5.0 0.00 0.00 0.00 47 1018.2
20260509115935 65 203 2.0 6.0 0.00 0.00 0.00 46 1018.2
20260509115435 65 40 2.0 6.0 0.00 0.00 0.00 47 1018.2
20260509114936 65 179 3.0 5.0 0.00 0.00 0.00 46 1018.4
20260509114434 66 9 4.0 7.0 0.00 0.00 0.00 45 1018.5
20260509113933 67 18 4.0 8.0 0.00 0.00 0.00 45 1018.4
20260509113430 67 12 4.0 9.0 0.00 0.00 0.00 45 1018.4
20260509112929 68 25 4.0 9.0 0.00 0.00 0.00 45 1018.4
20260509112423 69 40 4.0 8.0 0.00 0.00 0.00 44 1018.5
20260509111922 68 286 3.0 8.0 0.00 0.00 0.00 46 1018.5
20260509111420 68 9 3.0 7.0 0.00 0.00 0.00 46 1018.5
20260509110918 68 5 4.0 8.0 0.00 0.00 0.00 44 1018.5
20260509110419 67 265 3.0 8.0 0.00 0.00 0.00 49 1018.7
20260509105918 67 226 2.0 5.0 0.00 0.00 0.00 47 1018.7
20260509105417 66 144 3.0 5.0 0.00 0.00 0.00 47 1018.8
20260509104917 66 209 3.0 6.0 0.00 0.00 0.00 47 1018.8
20260509104413 66 223 2.0 6.0 0.00 0.00 0.00 51 1018.9
20260509103914 65 200 2.0 6.0 0.00 0.00 0.00 53 1018.9
20260509103410 65 269 3.0 6.0 0.00 0.00 0.00 53 1018.9
20260509102910 64 11 2.0 5.0 0.00 0.00 0.00 57 1018.9
20260509102409 64 30 2.0 4.0 0.00 0.00 0.00 52 1018.9
20260509101908 63 244 2.0 5.0 0.00 0.00 0.00 54 1018.9
20260509101408 63 94 3.0 8.0 0.00 0.00 0.00 54 1019.0
20260509100905 62 117 2.0 8.0 0.00 0.00 0.00 56 1019.0
20260509100404 61 77 2.0 7.0 0.00 0.00 0.00 63 1019.0
20260509095904 61 77 2.0 7.0 0.00 0.00 0.00 57 1019.0
20260509095401 61 76 3.0 7.0 0.00 0.00 0.00 58 1019.0
20260509094901 61 67 4.0 7.0 0.00 0.00 0.00 58 1019.1
20260509094346 62 17 5.0 8.0 0.00 0.00 0.00 56 1019.0
20260509093843 62 355 5.0 8.0 0.00 0.00 0.00 57 1019.0
20260509093340 61 21 4.0 8.0 0.00 0.00 0.00 57 1019.0
20260509092838 61 327 5.0 7.0 0.00 0.00 0.00 56 1018.9
20260509092338 61 95 6.0 10.0 0.00 0.00 0.00 58 1019.0
20260509091836 61 40 5.0 10.0 0.00 0.00 0.00 57 1019.0
20260509091346 61 24 4.0 9.0 0.00 0.00 0.00 60 1019.0
20260509090836 60 311 5.0 11.0 0.00 0.00 0.00 60 1019.0
20260509090335 60 67 4.0 11.0 0.00 0.00 0.00 60 1019.1
20260509085833 60 355 4.0 9.0 0.00 0.00 0.00 59 1019.0
20260509085334 60 76 4.0 8.0 0.00 0.00 0.00 58 1019.1
20260509084835 60 31 4.0 9.0 0.00 0.00 0.00 58 1019.1
20260509084334 60 41 3.0 9.0 0.00 0.00 0.00 60 1019.1
20260509083834 60 0 3.0 9.0 0.00 0.00 0.00 59 1019.1
20260509083334 60 90 4.0 9.0 0.00 0.00 0.00 63 1019.1
20260509082832 59 175 4.0 9.0 0.00 0.00 0.00 60 1019.2
20260509082332 59 110 3.0 9.0 0.00 0.00 0.00 63 1019.2
20260509081831 58 93 3.0 7.0 0.00 0.00 0.00 64 1019.2
20260509081330 58 74 3.0 8.0 0.00 0.00 0.00 64 1019.2
20260509080823 58 53 4.0 12.0 0.00 0.00 0.00 65 1019.2
20260509080319 58 342 4.0 12.0 0.00 0.00 0.00 65 1019.2
20260509075816 58 62 3.0 8.0 0.00 0.00 0.00 66 1019.2
20260509075315 58 89 3.0 9.0 0.00 0.00 0.00 65 1019.2
20260509074812 58 38 3.0 9.0 0.00 0.00 0.00 66 1019.3
20260509074313 57 80 3.0 8.0 0.00 0.00 0.00 67 1019.2
20260509073814 57 60 2.0 7.0 0.00 0.00 0.00 69 1019.3
20260509073312 57 24 2.0 7.0 0.00 0.00 0.00 71 1019.2
20260509072810 56 58 3.0 7.0 0.00 0.00 0.00 70 1019.2
20260509072311 56 98 4.0 8.0 0.00 0.00 0.00 71 1019.3
20260509071810 56 163 4.0 8.0 0.00 0.00 0.00 72 1019.3
20260509071338 55 128 3.0 8.0 0.00 0.00 0.00 72 1019.3
20260509070820 55 140 4.0 8.0 0.00 0.00 0.00 72 1019.4
20260509070331 54 31 4.0 8.0 0.00 0.00 0.00 73 1019.4
20260509065809 54 219 4.0 8.0 0.00 0.00 0.00 75 1019.4
20260509065320 53 148 5.0 8.0 0.00 0.00 0.00 76 1019.4
20260509064809 53 146 5.0 8.0 0.00 0.00 0.00 76 1019.4
20260509064308 53 134 5.0 8.0 0.00 0.00 0.00 77 1019.3
20260509063818 52 161 4.0 8.0 0.00 0.00 0.00 78 1019.3
20260509063307 52 134 3.0 6.0 0.00 0.00 0.00 79 1019.4
20260509062805 51 98 3.0 7.0 0.00 0.00 0.00 80 1019.3
20260509062308 51 172 3.0 7.0 0.00 0.00 0.00 82 1019.2
20260509061806 50 130 4.0 9.0 0.00 0.00 0.00 83 1019.2
20260509061305 49 86 4.0 9.0 0.00 0.00 0.00 84 1019.2
20260509060804 49 69 3.0 7.0 0.00 0.00 0.00 85 1019.2
20260509060304 49 115 2.0 7.0 0.00 0.00 0.00 86 1019.2
20260509055803 48 89 2.0 9.0 0.00 0.00 0.00 87 1019.3
20260509055306 48 60 2.0 9.0 0.00 0.00 0.00 88 1019.3
20260509054803 47 98 1.0 3.0 0.00 0.00 0.00 91 1019.2
20260509054303 47 171 1.0 4.0 0.00 0.00 0.00 93 1019.3
20260509053804 47 171 0.0 4.0 0.00 0.00 0.00 94 1019.3
20260509053302 46 54 0.0 0.0 0.00 0.00 0.00 94 1019.3
20260509052802 46 54 0.0 1.0 0.00 0.00 0.00 94 1019.2
20260509052307 46 54 1.0 2.0 0.00 0.00 0.00 94 1019.1
20260509051758 46 54 1.0 2.0 0.00 0.00 0.00 94 1019.0
20260509051255 45 55 0.0 2.0 0.00 0.00 0.00 94 1019.0
20260509050745 45 55 0.0 0.0 0.00 0.00 0.00 94 1018.9
20260509050236 44 55 0.0 0.0 0.00 0.00 0.00 93 1018.9
20260509045733 44 55 0.0 0.0 0.00 0.00 0.00 93 1018.8
20260509045230 44 55 0.0 0.0 0.00 0.00 0.00 93 1018.8
20260509044728 43 55 0.0 0.0 0.00 0.00 0.00 93 1018.7
20260509044227 43 55 0.0 0.0 0.00 0.00 0.00 92 1018.7
20260509043723 43 55 0.0 0.0 0.00 0.00 0.00 92 1018.6
20260509043221 42 55 0.0 0.0 0.00 0.00 0.00 91 1018.5
20260509042720 42 55 0.0 0.0 0.00 0.00 0.00 91 1018.5
20260509042217 42 55 0.0 2.0 0.00 0.00 0.00 91 1018.4
20260509041715 42 55 0.0 2.0 0.00 0.00 0.00 91 1018.4
20260509041214 42 55 0.0 2.0 0.00 0.00 0.00 91 1018.4
20260509040713 42 55 0.0 2.0 0.00 0.00 0.00 90 1018.4
20260509040213 42 55 0.0 2.0 0.00 0.00 0.00 91 1018.4
20260509035714 42 55 0.0 0.0 0.00 0.00 0.00 91 1018.4
20260509035210 42 55 0.0 0.0 0.00 0.00 0.00 90 1018.4
20260509034709 42 55 0.0 0.0 0.00 0.00 0.00 90 1018.4
20260509034209 42 55 0.0 1.0 0.00 0.00 0.00 90 1018.2
20260509033707 42 55 1.0 2.0 0.00 0.00 0.00 89 1018.2
20260509033205 43 55 1.0 3.0 0.00 0.00 0.00 89 1018.2
20260509032704 43 55 1.0 3.0 0.00 0.00 0.00 89 1018.4
20260509032204 43 55 0.0 2.0 0.00 0.00 0.00 88 1018.4
20260509031701 43 55 0.0 0.0 0.00 0.00 0.00 88 1018.4
20260509031203 43 55 0.0 0.0 0.00 0.00 0.00 87 1018.4
20260509030700 43 55 0.0 0.0 0.00 0.00 0.00 86 1018.4
20260509030155 43 55 0.0 0.0 0.00 0.00 0.00 86 1018.4
20260509025654 44 55 0.0 0.0 0.00 0.00 0.00 86 1018.4
20260509025152 44 55 0.0 0.0 0.00 0.00 0.00 86 1018.4
20260509024650 44 55 0.0 0.0 0.00 0.00 0.00 85 1018.4
20260509024154 44 55 0.0 0.0 0.00 0.00 0.00 85 1018.4
20260509023647 44 55 0.0 0.0 0.00 0.00 0.00 85 1018.4
20260509023146 45 55 0.0 0.0 0.00 0.00 0.00 85 1018.4
20260509022644 45 55 0.0 0.0 0.00 0.00 0.00 85 1018.5
20260509022144 45 55 0.0 0.0 0.00 0.00 0.00 85 1018.4
20260509021639 45 55 0.0 0.0 0.00 0.00 0.00 85 1018.5
20260509021139 46 55 0.0 0.0 0.00 0.00 0.00 85 1018.5
20260509020636 46 55 0.0 2.0 0.00 0.00 0.00 84 1018.4
20260509020134 46 55 0.0 2.0 0.00 0.00 0.00 84 1018.4
20260509015631 46 55 0.0 2.0 0.00 0.00 0.00 84 1018.4
20260509015132 46 55 1.0 3.0 0.00 0.00 0.00 85 1018.4
20260509014627 47 55 1.0 3.0 0.00 0.00 0.00 84 1018.5
20260509014124 47 69 1.0 2.0 0.00 0.00 0.00 85 1018.4
20260509013623 47 80 0.0 2.0 0.00 0.00 0.00 84 1018.4
20260509013124 47 80 1.0 2.0 0.00 0.00 0.00 84 1018.4
20260509012623 47 80 1.0 2.0 0.00 0.00 0.00 84 1018.4
20260509012123 47 101 1.0 3.0 0.00 0.00 0.00 84 1018.4
20260509011624 48 76 1.0 5.0 0.00 0.00 0.00 83 1018.4
20260509011117 48 106 2.0 5.0 0.00 0.00 0.00 83 1018.2
20260509010611 48 57 2.0 5.0 0.00 0.00 0.00 83 1018.4
20260509010113 48 44 2.0 5.0 0.00 0.00 0.00 83 1018.4
20260509005611 48 50 2.0 4.0 0.00 0.00 0.00 83 1018.4
20260509005111 48 77 2.0 7.0 0.00 0.00 0.00 82 1018.4
20260509004613 48 63 2.0 7.0 0.00 0.00 0.00 83 1018.4
20260509004109 48 84 2.0 5.0 0.00 0.00 0.00 82 1018.4
20260509003610 49 59 2.0 5.0 0.00 0.00 0.00 82 1018.5
20260509003108 49 58 2.0 5.0 0.00 0.00 0.00 81 1018.5
20260509002608 49 67 3.0 6.0 0.00 0.00 0.00 81 1018.5
20260509002106 49 77 3.0 6.0 0.00 0.00 0.00 80 1018.5
20260509001604 49 32 2.0 5.0 0.00 0.00 0.00 80 1018.5
20260509001103 49 33 2.0 7.0 0.00 0.00 0.00 79 1018.5
20260509000603 50 51 3.0 7.0 0.00 0.00 0.00 79 1018.5
20260509000109 50 41 3.0 6.0 0.00 0.00 0.00 79 1018.5
20260508235603 50 57 3.0 7.0 0.00 0.00 0.00 79 1018.6
20260508235105 50 59 3.0 7.0 0.00 0.00 0.00 78 1018.6
20260508234604 50 58 3.0 7.0 0.00 0.00 0.00 78 1018.6
20260508234104 50 64 3.0 7.0 0.00 0.00 0.00 78 1018.6
20260508233559 51 74 3.0 8.0 0.00 0.00 0.00 77 1018.6
20260508233059 51 47 3.0 8.0 0.00 0.00 0.00 77 1018.6
20260508232601 51 101 3.0 10.0 0.00 0.00 0.00 76 1018.6
20260508232059 51 40 3.0 10.0 0.00 0.00 0.00 76 1018.6
20260508231558 51 80 3.0 8.0 0.00 0.00 0.00 76 1018.7
20260508231105 51 41 3.0 8.0 0.00 0.00 0.00 76 1018.7
20260508230557 51 59 3.0 10.0 0.00 0.00 0.00 75 1018.6
20260508225557 52 53 3.0 7.0 0.00 0.00 0.00 75 1018.6
20260508225057 52 342 3.0 7.0 0.00 0.00 0.00 75 1018.7
20260508224557 52 92 3.0 7.0 0.00 0.00 0.00 75 1018.7
20260508224055 52 53 3.0 7.0 0.00 0.00 0.00 74 1018.7
20260508223555 52 44 3.0 7.0 0.00 0.00 0.00 74 1018.7
20260508223057 52 36 3.0 7.0 0.00 0.00 0.00 74 1018.6
20260508222553 52 54 3.0 7.0 0.00 0.00 0.00 74 1018.5
20260508222047 52 78 3.0 7.0 0.00 0.00 0.00 74 1018.7
20260508221536 52 46 3.0 7.0 0.00 0.00 0.00 74 1018.6